Вернуться в каталог

CSTP-2.1

АктивенНаукаSSO
NORAD 61777·PAYLOAD·🇮🇷 Iran

Запущен Nov 4, 2024 с Vostochny Cosmodrome

Loading…

Ближайшие Пролёты (ближайшие 24 часа)

TLE

СвежийSource: Space-Track

Эпоха: Sep 14, 2026, 15:12 UTC

1 61777U 24199AU  26257.63373503  .00016186  00000-0  30465-3 0  9998
2 61777  97.2817 130.8126 0011882 316.5297  43.5016 15.48543232148018

Отслеживайте CSTP-2.1 в реальном времени с AllMySat

Download on the App Store